Moron de la Frontera, Spain

5:12 AM CET on February 20, 2017 (GMT +0100)
Moron Air Base

Weather History for LEMO - October, 2011

Change the Weather History Date:

Friday, October 14, 2011

  Actual Average Record
Temperature  
Mean Temperature 76 °F -  
Max Temperature 93 °F 71 °F 93 °F (2011)
Min Temperature 59 °F 52 °F 44 °F (2000)
Cooling Degree Days 11    
Growing Degree Days 26 (Base 50)    
Moisture  
Dew Point 51 °F    
Average Humidity 44    
Maximum Humidity 64    
Minimum Humidity 24    
Precipitation  
Precipitation 0.00 in - - ()
Sea Level Pressure  
Sea Level Pressure 30.02 in    
Wind  
Wind Speed 4 mph ()    
Max Wind Speed 13 mph    
Max Gust Speed -    
Visibility 6.2 miles    
Events      
Averages and records for this station are not official NWS values.
T = Trace of Precipitation, MM = Missing Value Source: Averaged Metar Reports

Daily Weather History Graph

Daily Weather History Graph

Search for Another Location

Airport or City:

Trip Planner

Search our weather history database for the weather conditions in past years. The results will help you decide how hot, cold, wet, or windy it might be!

Date:

Astronomy

Oct. 14, 2011 Rise Set
Actual Time 8:28 AM CEST 7:47 PM CEST
Civil Twilight 8:02 AM CEST 8:13 PM CEST
Nautical Twilight 7:32 AM CEST 8:43 PM CEST
Astronomical Twilight 7:02 AM CEST 9:14 PM CEST
Moon 8:56 PM CEST (10/14) 10:39 AM CEST (10/14)
Length of Visible Light 12h 11m
Length of Day
11h 18m
Waning Gibbous, 95% of the Moon is Illuminated
Oct 14
Waning Gibbous
Oct 20
Last Quarter
Oct 26
New
Nov 2
First Quarter
Nov 10
Full

Hourly Weather History & Observations

Time (CEST) Temp. Heat Index Dew Point Humidity Pressure Visibility Wind Dir Wind Speed Gust Speed Precip Events Conditions
12:00 AM 71.6 °F - 50.0 °F 46% 30.06 in - South 6.9 mph - N/A   Clear
1:00 AM 68.0 °F - 48.2 °F 49% 30.06 in - South 5.8 mph - N/A   Clear
2:00 AM 68.0 °F - 50.0 °F 52% 30.04 in - SE 5.8 mph - N/A   Clear
3:00 AM 68.0 °F - 50.0 °F 52% 30.04 in - SSE 5.8 mph - N/A   Clear
4:00 AM 64.4 °F - 46.4 °F 52% 30.04 in - SSE 4.6 mph - N/A   Clear
5:00 AM 64.4 °F - 46.4 °F 52% 30.01 in - SSE 6.9 mph - N/A   Clear
6:00 AM 62.6 °F - 44.6 °F 52% 30.01 in - Calm Calm - N/A   Clear
7:00 AM 59.0 °F - 44.6 °F 59% 30.01 in - Calm Calm - N/A   Clear
8:00 AM 59.0 °F - 46.4 °F 63% 30.01 in - NE 3.5 mph - N/A   Clear
9:00 AM 60.8 °F - 46.4 °F 59% 30.01 in - Variable 1.2 mph - N/A   Clear
10:00 AM 66.2 °F - 48.2 °F 52% 30.04 in - Variable 1.2 mph - N/A   Clear
11:00 AM 75.2 °F - 50.0 °F 41% 30.04 in - Variable 1.2 mph - N/A   Clear
12:00 PM 82.4 °F - 51.8 °F 35% 30.04 in - Variable 1.2 mph - N/A   Clear
1:00 PM 84.2 °F - 51.8 °F 33% 30.04 in - Variable 2.3 mph - N/A   Clear
2:00 PM 89.6 °F - 51.8 °F 27% 30.01 in 6.2 mi Variable 2.3 mph - N/A   Partly Cloudy
3:00 PM 91.4 °F - 51.8 °F 26% 30.01 in 6.2 mi West 4.6 mph - N/A   Partly Cloudy
4:00 PM 93.2 °F - 51.8 °F 24% 29.98 in 6.2 mi SW 4.6 mph - N/A   Partly Cloudy
5:00 PM 93.2 °F 90.8 °F 53.6 °F 26% 29.98 in 6.2 mi WSW 4.6 mph - N/A   Partly Cloudy
6:00 PM 93.2 °F - 51.8 °F 24% 29.95 in 6.2 mi WSW 6.9 mph - N/A   Partly Cloudy
7:00 PM 89.6 °F - 50.0 °F 26% 29.98 in - WSW 6.9 mph - N/A   Clear
8:00 PM 82.4 °F 81.7 °F 55.4 °F 39% 29.98 in - SW 12.7 mph - N/A   Clear
9:00 PM 77.0 °F - 59.0 °F 54% 30.01 in - SW 10.4 mph - N/A   Clear
10:00 PM 75.2 °F - 57.2 °F 53% 30.01 in - SW 8.1 mph - N/A   Clear
11:00 PM 71.6 °F - 59.0 °F 64% 30.04 in - SSW 5.8 mph - N/A   Clear